Regional Weather Roundup
Issued by NWS

Home | Current Version | Previous Version | Graphics & Text | Print | Product List | Glossary On
Versions: 1 2 3 4 5 6 7 8 9 10 11 12 13 14 15 16 17 18 19 20 21 22 23 24 25 26 27 28 29 30 31 32 33 34 35 36 37 38 39 40 41 42 43 44 45 46 47 48 49 50
000
ASUS43 KMKX 240521
RWRWI

WISCONSIN REGIONAL WEATHER ROUNDUP
NATIONAL WEATHER SERVICE MILWAUKEE/SULLIVAN WI
1200 AM CDT SAT SEP 24 2016

NOTE: "FAIR" INDICATES FEW OR NO CLOUDS BELOW 12,000 FEET WITH NO
SIGNIFICANT WEATHER AND/OR OBSTRUCTIONS TO VISIBILITY.

WIZ001-002-006>008-014>016-023>028-240600-
NORTHWEST WISCONSIN

CITY           SKY/WX    TMP DP  RH WIND       PRES   REMARKS
SUPERIOR ARPT  CLOUDY    57  53  88 E10       30.17S
ASHLAND        CLOUDY    56  52  86 E8        30.17F
HAYWARD        CLOUDY    59  55  87 SE6       30.16R
SIREN          CLOUDY    61  58  90 E3        30.13S
CUMBERLAND     CLOUDY    59  55  88 E5        30.15R
RICE LAKE      CLOUDY    61  57  85 E7        30.16S
CHETEK         NOT AVBL
LADYSMITH      CLOUDY    60  56  87 SE8       30.18F
EAU CLAIRE     CLOUDY    63  58  83 E9        30.14S
MENOMONIE      CLOUDY    64  58  79 E7        30.14R
NEW RICHMOND   CLOUDY    62  59  91 SE6       30.11S
OSCEOLA        CLOUDY    63  63 100 E10       30.13S
$$

WIZ003>005-009-010-017-018-240600-
NORTH CENTRAL WISCONSIN

CITY           SKY/WX    TMP DP  RH WIND       PRES   REMARKS
MANITOWISH WTR NOT AVBL
ARBOR VITAE    MOCLDY    57  52  84 SE7       30.23S
WOODRUFF       MOCLDY    57  52  84 SE7       30.23S
RHINELANDER    CLOUDY    54  52  93 E7        30.23S
EAGLE RIVER    PTCLDY    53  46  78 E7        30.23F
LAND O LAKES   PTCLDY    52  47  83 SE6       30.26R
PHILLIPS       LGT RAIN  58  54  87 SE6       30.20S
TOMAHAWK       MOCLDY    55  48  78 CALM      30.23S
MEDFORD        MOCLDY    56  54  94 SE7       30.21R
MERRILL        MOCLDY    56  53  88 E5        30.22F
$$

WIZ029-030-035-036-043>047-240600-
CENTRAL WISCONSIN

CITY           SKY/WX    TMP DP  RH WIND       PRES   REMARKS
WAUSAU         PTCLDY    55  53  93 E7        30.20S
MOSINEE        CLEAR     54  54 100 E5        30.22S
MARSHFIELD     CLOUDY    58  53  84 E9        30.20S
STEVENS POINT  CLEAR     53  52  97 E3        30.21F
WAUPACA        CLEAR     58  56  94 CALM      30.20F
WAUTOMA        CLOUDY    59  55  87 E6        30.20F
WISC RAPIDS    MOCLDY    57  55  93 E8        30.21S
CAMP DOUGLAS   MOCLDY    61  57  88 E13       30.16F
$$

WIZ011>013-019>022-031-037>040-048>050-240600-
NORTHEAST WISCONSIN

CITY           SKY/WX    TMP DP  RH WIND       PRES   REMARKS
ANTIGO         CLOUDY    54  52  94 CALM      30.23F
SHAWANO        CLOUDY    58  54  88 E6        30.22S
OCONTO         NOT AVBL
STURGEON BAY   MOCLDY    57  54  89 NE3       30.22F
GREEN BAY      PTCLDY    58  56  93 NE6       30.21F
MANITOWOC      PTCLDY    61  56  83 CALM      30.20F
APPLETON       CLEAR     57  52  82 E6        30.19S
CLINTONVILLE   NOT AVBL
OSHKOSH        CLOUDY    63  56  78 E9        30.18F
$$

WIZ032>034-041-042-053>061-240600-
SOUTHWEST WISCONSIN

CITY           SKY/WX    TMP DP  RH WIND       PRES   REMARKS
LA CROSSE      CLOUDY    67  60  78 E9        30.12S
SPARTA         CLOUDY    62  58  85 E8        30.16S
VIROQUA        CLOUDY    62  58  88 E9G16     30.15S
BOSCOBEL       CLOUDY    66  61  84 E6        30.13S
PRAIRIE DU CHI CLEAR     65  61  86 E5        30.11S
PLATTEVILLE    CLEAR     64  63  97 E9        30.14S
$$

WIZ056-057-062-063-064-067-068-240600-
SOUTH CENTRAL WISCONSIN

CITY           SKY/WX    TMP DP  RH WIND       PRES   REMARKS
REEDSBURG      NOT AVBL
BARABOO/DELLS  CLOUDY    61  56  85 E7        30.17S
LONE ROCK      CLOUDY    64  59  83 E10       30.15F
MINERAL POINT  MOCLDY    64  63  94 E8        30.14F
MADISON        CLOUDY    62  59  90 NE6       30.17S
MIDDLETON      CLOUDY    64  62  94 E9        30.17F
WATERTOWN      CLOUDY    62  62 100 NE5       30.17S
MONROE         CLOUDY    63  61  94 NE8       30.15S
JANESVILLE     CLOUDY    64  64 100 E8        30.15S
$$

WIZ051-052-058>065-066-070>072-240600-
SOUTHEAST WISCONSIN

CITY           SKY/WX    TMP DP  RH WIND       PRES   REMARKS
MILWAUKEE      MOCLDY    66  60  81 E12       30.18R
WAUKESHA       CLOUDY    63  59  88 E9        30.18F
MILWAUKEE/TIMM CLOUDY    64  55  72 E9        30.19S
RACINE         CLOUDY    66  60  81 E12       30.19R
BURLINGTON     CLOUDY    64  61  90 E6        30.17S
KENOSHA        CLOUDY    66  62  87 E10       30.17R
FOND DU LAC    CLOUDY    61  57  87 NE7       30.19F
SHEBOYGAN      CLOUDY    63  59  87 E3        30.19F
WEST BEND      CLOUDY    61  59  94 CALM      30.19S
JUNEAU         CLOUDY    60  58  94 NE3       30.19S
$$

LSZ147-162-240600-
LAKE SUPERIOR

STATION/POSITION TIME  TEMP    WIND        PRES    WAVE
                       AIR SEA DIR/SP/G            HT/PER
                 (UTC) (F)     (DEG/KT/KT) (MB)    (FT/S)
W MID LAKE BUOY  0450   60 62  110/ 17/ 19 1022.9F   3/ 4
DEVILS ISLAND    0500   60     100/ 22/ 24 1022.3F
SAXON HARBOR     0400   59     100/  2/  6 1022.0
$$

LMZ867-665-643>646-240600-
LAKE MICHIGAN

STATION/POSITION TIME  TEMP    WIND        PRES    WAVE
                       AIR SEA DIR/SP/G            HT/PER
                 (UTC) (F)     (DEG/KT/KT) (MB)    (FT/S)
CHAMBERS ISLAND  0400   63      70/  5/  9 1023.4S
S GREEN BAY BUOY 0500   62 66   70/ 10/ 12 1022.4
N MID LAKE BUOY  0450   62 68  120/ 16/ 19 1023.5S   2/ 4
NORTHPORT PIER   0400   64     100/ 13/ 15 1023.7S
SISTER BAY       0308   58        CALM       N/A
ALGOMA LAKESHORE 0417          100/ 13/ 14   N/A
KEWAUNEE LAKESHO 0400   63      90/  8/ 10 1022.7S
SHEBOYGAN LAKESH 0500   65     100/ 16/ 17 1021.9F
PORT WASHINGTON  0440   62      50/  5/  7 1022.7S
ATWATER BUOY     0500   65 63  110/ 14/ 16 1022.0R
MILWAUKEE LAKESH 0410   65      80/ 13/ 14   N/A
S MID LAKE BUOY  0450   65 72   90/ 19/ 23 1020.8R   4/ 4
KENOSHA   LAKESH 0500   66      90/ 13/ 15 1021.3R
$$

TC  - TEMPERATURE IN CELSIUS
VSB - VISIBILITY IN STATUTE MILES
WCI - WIND CHILL INDEX
HX  - HEAT INDEX





USA.gov is the U.S. government's official web portal to all federal, state and local government web resources and services.